• en France
  • Liste des pays
  • À 7 jours
  • Température de l'eau
  • Carte satellitaire
  • Carte météo
  • Widgets météo
  • user-avatar
    Se connecter

    Météo par heure à San Miguel de Tucumán

    Ce jour, 17 Janvier, Mercredi

    Heure Température Précipitation Vent Pression Humidité
    00:00 +25°C° 1,7 mm 1 m/s 718 mmHg 90%
    01:00 +25°C° 1,7 mm 1 m/s 718 mmHg 91%
    02:00 +25°C° 1,7 mm 1 m/s 718 mmHg 92%
    03:00 +25°C° 0,6 mm 1 m/s 718 mmHg 92%
    04:00 +25°C° 0,6 mm 1 m/s 718 mmHg 92%
    05:00 +24°C° 0,6 mm 1 m/s 718 mmHg 92%
    06:00 +25°C° 0,1 mm 1 m/s 718 mmHg 90%
    07:00 +25°C° 0,1 mm 1 m/s 718 mmHg 88%
    08:00 +26°C° 0,1 mm 1 m/s 718 mmHg 86%
    09:00 +28°C° 0,3 mm 1 m/s 718 mmHg 79%
    10:00 +29°C° 0,3 mm 2 m/s 718 mmHg 71%
    11:00 +31°C° 0,3 mm 2 m/s 719 mmHg 64%
    12:00 +31°C° 0,9 mm 2 m/s 718 mmHg 66%
    13:00 +31°C° 0,9 mm 2 m/s 718 mmHg 68%
    14:00 +31°C° 0,9 mm 1 m/s 717 mmHg 71%
    15:00 +31°C° 1,1 mm 1 m/s 717 mmHg 70%
    16:00 +31°C° 1,1 mm 1 m/s 717 mmHg 68%
    17:00 +31°C° 1,1 mm 1 m/s 716 mmHg 67%
    18:00 +30°C° 1,8 mm 1 m/s 717 mmHg 73%
    19:00 +28°C° 1,8 mm 1 m/s 717 mmHg 79%
    20:00 +27°C° 1,8 mm 1 m/s 718 mmHg 84%
    21:00 +26°C° 4,3 mm 1 m/s 719 mmHg 87%
    22:00 +25°C° 4,3 mm 1 m/s 719 mmHg 90%
    23:00 +25°C° 4,3 mm 2 m/s 720 mmHg 93%

    Demain, 18 Janvier, Jeudi

    Heure Température Précipitation Vent Pression Humidité
    00:00 +24°C° 1,9 mm 2 m/s 720 mmHg 94%
    01:00 +24°C° 1,9 mm 2 m/s 720 mmHg 95%
    02:00 +24°C° 1,9 mm 2 m/s 720 mmHg 95%
    03:00 +24°C° 1,7 mm 2 m/s 720 mmHg 95%
    04:00 +24°C° 1,7 mm 2 m/s 720 mmHg 95%
    05:00 +24°C° 1,7 mm 2 m/s 720 mmHg 95%
    06:00 +24°C° 0,6 mm 2 m/s 720 mmHg 94%
    07:00 +24°C° 0,6 mm 2 m/s 721 mmHg 93%
    08:00 +25°C° 0,6 mm 2 m/s 721 mmHg 92%
    09:00 +26°C° 0,4 mm 2 m/s 721 mmHg 87%
    10:00 +27°C° 0,4 mm 2 m/s 721 mmHg 83%
    11:00 +28°C° 0,4 mm 2 m/s 721 mmHg 78%
    12:00 +29°C° 0,8 mm 2 m/s 721 mmHg 76%
    13:00 +29°C° 0,8 mm 2 m/s 720 mmHg 75%
    14:00 +30°C° 0,8 mm 2 m/s 720 mmHg 73%
    15:00 +29°C° 1 mm 2 m/s 719 mmHg 75%
    16:00 +29°C° 1 mm 2 m/s 719 mmHg 77%
    17:00 +29°C° 1 mm 1 m/s 718 mmHg 79%
    18:00 +27°C° 0,8 mm 1 m/s 719 mmHg 84%
    19:00 +26°C° 0,8 mm 1 m/s 719 mmHg 88%
    20:00 +25°C° 0,8 mm 1 m/s 719 mmHg 93%
    21:00 +24°C° 0,6 mm 1 m/s 720 mmHg 92%
    22:00 +24°C° 0,6 mm 1 m/s 721 mmHg 92%
    23:00 +24°C° 0,6 mm 1 m/s 721 mmHg 91%

    Après-demain, 19 Janvier, Vendredi

    Heure Température Précipitation Vent Pression Humidité
    00:00 +24°C° 0,3 mm 1 m/s 721 mmHg 91%
    01:00 +24°C° 0,3 mm 1 m/s 720 mmHg 90%
    02:00 +23°C° 0,3 mm 1 m/s 720 mmHg 90%
    03:00 +23°C° 0 mm 1 m/s 720 mmHg 90%
    04:00 +23°C° 0 mm 1 m/s 720 mmHg 90%
    05:00 +23°C° 0 mm 1 m/s 720 mmHg 90%
    06:00 +24°C° 0,2 mm 1 m/s 721 mmHg 86%
    07:00 +25°C° 0,2 mm 1 m/s 721 mmHg 83%
    08:00 +27°C° 0,2 mm 1 m/s 722 mmHg 79%
    09:00 +28°C° 0,7 mm 1 m/s 722 mmHg 75%
    10:00 +29°C° 0,7 mm 1 m/s 722 mmHg 71%
    11:00 +30°C° 0,7 mm 1 m/s 722 mmHg 67%
    12:00 +30°C° 1,1 mm 1 m/s 721 mmHg 67%
    13:00 +31°C° 1,1 mm 1 m/s 720 mmHg 66%
    14:00 +31°C° 1,1 mm 1 m/s 719 mmHg 66%
    15:00 +31°C° 0,6 mm 1 m/s 719 mmHg 66%
    16:00 +31°C° 0,6 mm 1 m/s 718 mmHg 67%
    17:00 +31°C° 0,6 mm 1 m/s 717 mmHg 68%
    18:00 +29°C° 0,9 mm 1 m/s 718 mmHg 73%
    19:00 +28°C° 0,9 mm 1 m/s 718 mmHg 78%
    20:00 +26°C° 0,9 mm 1 m/s 718 mmHg 83%
    21:00 +26°C° 1,4 mm 1 m/s 718 mmHg 85%
    22:00 +25°C° 1,4 mm 1 m/s 719 mmHg 87%
    23:00 +24°C° 1,4 mm 1 m/s 719 mmHg 90%

    20 Janvier, Samedi

    Heure Température Précipitation Vent Pression Humidité
    00:00 +24°C° 0,5 mm 1 m/s 718 mmHg 89%
    01:00 +24°C° 0,5 mm 1 m/s 718 mmHg 89%
    02:00 +24°C° 0,5 mm 1 m/s 717 mmHg 89%
    03:00 +24°C° 0,6 mm 1 m/s 717 mmHg 90%
    04:00 +24°C° 0,6 mm 1 m/s 716 mmHg 91%
    05:00 +23°C° 0,6 mm 1 m/s 716 mmHg 92%
    06:00 +24°C° 0,1 mm 1 m/s 717 mmHg 89%
    07:00 +25°C° 0,1 mm 1 m/s 717 mmHg 86%
    08:00 +26°C° 0,1 mm 1 m/s 717 mmHg 83%
    09:00 +28°C° 0,1 mm 1 m/s 717 mmHg 75%
    10:00 +31°C° 0,1 mm 1 m/s 717 mmHg 67%
    11:00 +33°C° 0,1 mm 1 m/s 716 mmHg 59%
    12:00 +32°C° 0,5 mm 1 m/s 715 mmHg 62%
    13:00 +32°C° 0,5 mm 2 m/s 715 mmHg 65%
    14:00 +32°C° 0,5 mm 2 m/s 714 mmHg 69%
    15:00 +31°C° 2,4 mm 2 m/s 713 mmHg 73%
    16:00 +30°C° 2,4 mm 2 m/s 713 mmHg 78%
    17:00 +29°C° 2,4 mm 1 m/s 713 mmHg 82%
    18:00 +28°C° 2,5 mm 1 m/s 713 mmHg 85%
    19:00 +27°C° 2,5 mm 1 m/s 714 mmHg 89%
    20:00 +26°C° 2,5 mm 1 m/s 714 mmHg 92%
    21:00 +25°C° 1,5 mm 1 m/s 715 mmHg 92%
    22:00 +25°C° 1,5 mm 2 m/s 715 mmHg 93%
    23:00 +25°C° 1,5 mm 2 m/s 716 mmHg 93%

    21 Janvier, Dimanche

    Heure Température Précipitation Vent Pression Humidité
    00:00 +25°C° 0,5 mm 2 m/s 715 mmHg 93%
    01:00 +24°C° 0,5 mm 1 m/s 715 mmHg 92%
    02:00 +24°C° 0,5 mm 1 m/s 714 mmHg 92%
    03:00 +24°C° 0,3 mm 1 m/s 714 mmHg 91%
    04:00 +24°C° 0,3 mm 1 m/s 714 mmHg 91%
    05:00 +24°C° 0,3 mm 1 m/s 714 mmHg 91%
    06:00 +25°C° 0,1 mm 2 m/s 714 mmHg 89%
    07:00 +25°C° 0,1 mm 2 m/s 715 mmHg 86%
    08:00 +26°C° 0,1 mm 2 m/s 715 mmHg 84%
    09:00 +27°C° 0,1 mm 2 m/s 715 mmHg 80%
    10:00 +28°C° 0,1 mm 2 m/s 715 mmHg 77%
    11:00 +30°C° 0,1 mm 2 m/s 715 mmHg 73%
    12:00 +30°C° 0,2 mm 2 m/s 714 mmHg 69%
    13:00 +31°C° 0,2 mm 2 m/s 714 mmHg 66%
    14:00 +32°C° 0,2 mm 2 m/s 713 mmHg 62%
    15:00 +31°C° 0,4 mm 2 m/s 713 mmHg 66%
    16:00 +31°C° 0,4 mm 2 m/s 712 mmHg 69%
    17:00 +30°C° 0,4 mm 2 m/s 712 mmHg 72%
    18:00 +29°C° 1,3 mm 2 m/s 713 mmHg 79%
    19:00 +27°C° 1,3 mm 1 m/s 713 mmHg 85%
    20:00 +26°C° 1,3 mm 1 m/s 713 mmHg 91%
    21:00 +25°C° 0,7 mm 1 m/s 714 mmHg 91%
    22:00 +25°C° 0,7 mm 1 m/s 714 mmHg 92%
    23:00 +25°C° 0,7 mm 1 m/s 714 mmHg 92%

    22 Janvier, Lundi

    Heure Température Précipitation Vent Pression Humidité
    00:00 +25°C° 0 mm 1 m/s 714 mmHg 91%
    01:00 +24°C° 0 mm 1 m/s 714 mmHg 90%
    02:00 +24°C° 0 mm 1 m/s 713 mmHg 90%
    03:00 +24°C° 0 mm 1 m/s 713 mmHg 88%
    04:00 +24°C° 0 mm 1 m/s 713 mmHg 87%
    05:00 +24°C° 0 mm 1 m/s 713 mmHg 86%
    06:00 +25°C° 0 mm 1 m/s 713 mmHg 83%
    07:00 +26°C° 0 mm 1 m/s 714 mmHg 80%
    08:00 +27°C° 0 mm 1 m/s 714 mmHg 77%
    09:00 +29°C° 0 mm 1 m/s 714 mmHg 71%
    10:00 +31°C° 0 mm 2 m/s 714 mmHg 66%
    11:00 +32°C° 0 mm 2 m/s 714 mmHg 60%
    12:00 +34°C° 0,1 mm 2 m/s 714 mmHg 58%
    13:00 +34°C° 0,1 mm 2 m/s 713 mmHg 55%
    14:00 +35°C° 0,1 mm 2 m/s 712 mmHg 53%
    15:00 +35°C° 0,1 mm 2 m/s 712 mmHg 54%
    16:00 +34°C° 0,1 mm 2 m/s 712 mmHg 55%
    17:00 +34°C° 0,1 mm 2 m/s 712 mmHg 56%
    18:00 +31°C° 0,4 mm 1 m/s 712 mmHg 63%
    19:00 +29°C° 0,4 mm 1 m/s 713 mmHg 71%
    20:00 +27°C° 0,4 mm 1 m/s 713 mmHg 78%
    21:00 +27°C° 0,5 mm 1 m/s 714 mmHg 80%
    22:00 +26°C° 0,5 mm 1 m/s 714 mmHg 82%
    23:00 +25°C° 0,5 mm 1 m/s 715 mmHg 85%
    Voir plus